Regional Weather Roundup
Issued by NWS Boston, MA

Home | Current Version | Previous Version | Text Only | Print | Product List | Glossary On
Versions: 1 2 3 4 5 6 7 8 9 10 11 12 13 14 15 16 17 18 19 20 21 22 23 24 25 26 27
000
ASUS41 KBOX 231210
RWRBOX

REGIONAL WEATHER ROUNDUP
NATIONAL WEATHER SERVICE TAUNTON MA
800 AM EDT THU OCT 23 2014

NOTE:  "FAIR" INDICATES FEW OR NO CLOUDS BELOW 12,000 FEET WITH NO
SIGNIFICANT WEATHER AND/OR OBSTRUCTIONS TO VISIBILITY.  THE FOLLOWING
OBSERVATION LOCATIONS DO NOT REPORT PRESENT WEATHER...PROVINCETOWN...
SMITHFIELD...BLOCK ISLAND...KEENE...AND OXFORD.

MAZALL-231300-
EASTERN MASSACHUSETTS

CITY           SKY/WX    TMP DP  RH WIND       PRES   REMARKS
BOSTON         LGT RAIN  50  49  96 N28G35    29.67F
6HR MIN TEMP:  49; 6HR MAX TEMP:  51; 6HR PCP:  1.65;

BEVERLY        HVY RAIN  50  48  93 MISG      29.71R FOG
LAWRENCE       HVY RAIN  50  47  89 N7        29.73R FOG
BEDFORD        HVY RAIN  48  48 100 N8        29.72R FOG
BLUE HILL        N/A     48  48 100 N22G35    29.62F
NORWOOD        LGT RAIN  51  48  89 N15G25    29.64F
MARSHFIELD     NOT AVBL
PLYMOUTH       CLOUDY    55  54  96 N15G23    29.58R
TAUNTON        CLOUDY    54  51  90 N14G30    29.58R
NEW BEDFORD    CLOUDY    55  53  93 N14G30    29.56R
$$

MAZALL-231300-
CAPE COD AND THE ISLANDS

CITY           SKY/WX    TMP DP  RH WIND       PRES   REMARKS
FALMOUTH       CLOUDY    57  55  94 N16G23    29.55S FOG
HYANNIS        PTCLDY    58  55  90 N13       29.53S
CHATHAM        PTCLDY    55  55 100 VRB5      29.54S
PROVINCETOWN   CLOUDY    55   1  11 N16G24    29.55F
NANTUCKET      MOCLDY    57  55  94 N14       29.53R
MARTHAS VNYRD  PTCLDY    57  56  96 N15       29.54R
$$

MAZALL-231300-
CENTRAL AND WESTERN MASSACHUSETTS

CITY           SKY/WX    TMP DP  RH WIND       PRES   REMARKS
WORCESTER      HVY RAIN  46  45  96 NE17G25   29.71R FOG
6HR MIN TEMP:  45; 6HR MAX TEMP:  46; 6HR PCP:  0.55;

FITCHBURG      HVY RAIN  48  46  93 N10       29.76S FOG
ORANGE         HVY RAIN  48  46  93 N9        29.76F FOG
SPRINGFIELD    RAIN      49  46  90 NE17G24   29.70S
WESTFIELD      LGT RAIN  50  46  86 N17G33    29.71R
NORTH ADAMS    RAIN      43  42  97 W10       29.82S FOG
PITTSFIELD     CLOUDY    46  43  89 N9G16     29.76S
$$

RIZALL-231300-
RHODE ISLAND

CITY           SKY/WX    TMP DP  RH WIND       PRES   REMARKS
PROVIDENCE     MOCLDY    52  49  89 N25G39    29.59R
6HR MIN TEMP:  50; 6HR MAX TEMP:  53; 6HR PCP:  0.02;

NEWPORT        CLOUDY    56  51  84 N17G29    29.57R
BLOCK ISLAND   CLOUDY    55  50  82 N17G30    29.56R
SMITHFIELD     CLOUDY    48  41  76 N22G35    29.59F
WESTERLY       CLOUDY    53  49  86 N15G21    29.58F
$$

CTZALL-231300-
CONNECTICUT

CITY           SKY/WX    TMP DP  RH WIND       PRES   REMARKS
BRADLEY INTL   LGT RAIN  51  46  83 N20G28    29.68R
6HR MIN TEMP:  50; 6HR MAX TEMP:  51; 6HR PCP:  0.14;

HARTFORD       CLOUDY    50  46  86 N14G23    29.68R
BRIDGEPORT     CLOUDY    53  47  79 N21G37    29.65R
DANBURY        LGT RAIN  48  43  82 N9        29.72R
GROTON         MOCLDY    53  48  83 N21G28    29.57F
NEW HAVEN      CLOUDY    53  46  77 N31G40    29.62S
CHESTER        NOT AVBL
MERIDEN        CLOUDY    51  46  83 N13G31    29.67R
WILLIMANTIC    CLOUDY    53  46  77 N20G35    29.62F
OXFORD         CLOUDY    50  43  76 NE16G23   29.68S
$$

MEZ002-015-021-024-NHZ003-005-008-011-012-014-VTZ005-008-231300-
NORTHERN NEW ENGLAND

CITY           SKY/WX    TMP DP  RH WIND       PRES   REMARKS
PORTLAND ME    CLOUDY    50  47  89 NE23G33   29.77F
6HR MIN TEMP:  49; 6HR MAX TEMP:  50; 6HR PCP:  0.20;

BANGOR ME      HVY RAIN  48  46  93 NE17      29.96F FOG
CONCORD NH     LGT RAIN  48  46  93 N15G24    29.75F
MANCHESTER NH  HVY RAIN  50  46  86 N17       29.73S FOG
NASHUA NH      HVY RAIN  48  48 100 NW8       29.76R FOG
PORTSMOUTH NH  RAIN      49  47  91 N18G28    29.70S VSB 1
JAFFREY NH     RAIN      46  45  96 VRB6      29.76F FOG
KEENE NH       CLOUDY    48  39  71 N5        29.78F
BURLINGTON VT  MOCLDY    44  37  76 N14       29.99F
MT. WASHINGTON NOT AVBL
$$

NYZ052-076-231300-
EASTERN NEW YORK

CITY           SKY/WX    TMP DP  RH WIND       PRES   REMARKS
ALBANY         RAIN      46  43  89 N8        29.87S FOG
6HR MIN TEMP:  46; 6HR MAX TEMP:  49; 6HR PCP:  0.78;

NEW YORK CITY  LGT RAIN  51  46  83 N23G33    29.69S
6HR MIN TEMP:  51; 6HR MAX TEMP:  53; 6HR PCP:  0.09;

$$

ANZALL-231300-
MARINE OBSERVATIONS

STATION/POSITION TIME  TEMP    WIND        PRES    VSBY  WAVE
                       AIR SEA DIR/SP/G                  HT/PER
                 (UTC) (F)     (DEG/KT/KT) (MB)    (MI)  (FT/S)
BOSTON BUOY      NOT AVBL
BUZZARDS BAY     NOT AVBL
NANTUCKET SOUND  NOT AVBL
MASS BAY-STELLWA NOT AVBL
ISLE OF SHOALS   NOT AVBL
S OF BLOCK IS    NOT AVBL
$$

......................KEY.........................
  SKY/WX - SKY CONDITION/PRESENT WEATHER
  TMP    - TEMPERATURE IN FAHRENHEIT
  DWPT   - DEWPOINT IN FAHRENHEIT
  RH     - RELATIVE HUMIDITY IN PERCENT
  WIND   - DIRECTION AND SPEED IN MPH
  PRES   - MEAN SEA LEVEL PRESSURE IN INCHES OF HG
  WCI    - WIND CHILL INDEX
  VSB    - VISIBILITY IN MILES
  HX     - HEAT INDEX
  TC     - TEMPERATURE IN CELSIUS
  VRB    - VARIABLE WIND DIRECTION
  N/A    - NOT AVAILABLE



USA.gov is the U.S. government's official web portal to all federal, state and local government web resources and services.